Weather History for KRGK - April, 2013

Change the Weather History Date:

Saturday, April 27, 2013

  Actual Average Record
Temperature  
Mean Temperature 56 °F -  
Max Temperature 75 °F 62 °F 78 °F (2003)
Min Temperature 37 °F 38 °F 24 °F (2004)
Degree Days  
Heating Degree Days 9    
Growing Degree Days 6 (Base 50)    
Moisture  
Dew Point 44 °F    
Average Humidity 65    
Maximum Humidity 100    
Minimum Humidity 33    
Precipitation  
Precipitation 0.00 in - - ()
Sea Level Pressure  
Sea Level Pressure 30.04 in    
Wind  
Wind Speed 3 mph (SSE)    
Max Wind Speed 13 mph    
Max Gust Speed 18 mph    
Visibility 9 miles    
Events      
Averages and records for this station are not official NWS values.
T = Trace of Precipitation, MM = Missing Value Source: NWS Daily Summary

Daily Weather History Graph

Daily Weather History Graph

Search for Another Location

Airport or City:

Trip Planner

Search our weather history database for the weather conditions in past years. The results will help you decide how hot, cold, wet, or windy it might be!

Date:

Astronomy

Apr. 27, 2013 Rise Set
Actual Time 6:05 AM CDT 8:10 PM CDT
Civil Twilight 5:34 AM CDT 8:41 PM CDT
Nautical Twilight 4:55 AM CDT 9:20 PM CDT
Astronomical Twilight 4:12 AM CDT 10:04 PM CDT
Moon 10:44 PM CDT (4/27) 7:20 AM CDT (4/27)
Length of Visible Light 15h 07m
Length of Day
14h 04m
Waning Gibbous, 95% of the Moon is Illuminated
Apr 27
Waning Gibbous
May 2
Last Quarter
May 9
New
May 17
First Quarter
May 24
Full

Hourly Weather History & Observations

Time (CDT) Temp. Windchill Dew Point Humidity Pressure Visibility Wind Dir Wind Speed Gust Speed Precip Events Conditions
12:15 AM 46.4 °F - 39.2 °F 76% 30.12 in 10.0 mi Calm Calm - N/A   Clear
12:35 AM 44.6 °F - 39.2 °F 81% 30.12 in 10.0 mi Calm Calm - N/A   Clear
12:55 AM 44.6 °F - 39.2 °F 81% 30.13 in 10.0 mi Calm Calm - N/A   Clear
1:15 AM 42.8 °F 41.1 °F 39.2 °F 87% 30.12 in 10.0 mi SE 3.5 mph - N/A   Clear
1:35 AM 42.8 °F 40.1 °F 39.2 °F 87% 30.13 in 10.0 mi ESE 4.6 mph - N/A   Clear
2:15 AM 42.8 °F - 39.2 °F 87% 30.13 in 10.0 mi Calm Calm - N/A   Clear
2:35 AM 42.8 °F - 39.2 °F 87% 30.12 in 10.0 mi Calm Calm - N/A   Clear
2:55 AM 41.0 °F 39.0 °F 37.4 °F 87% 30.11 in 10.0 mi NNW 3.5 mph - N/A   Clear
3:15 AM 39.2 °F - 37.4 °F 93% 30.11 in 10.0 mi Calm Calm - N/A   Clear
3:35 AM 39.2 °F - 37.4 °F 93% 30.11 in 10.0 mi Calm Calm - N/A   Clear
3:55 AM 39.2 °F - 37.4 °F 93% 30.11 in 10.0 mi Calm Calm - N/A   Clear
4:15 AM 39.2 °F - 37.4 °F 93% 30.11 in 10.0 mi Calm Calm - N/A   Clear
4:35 AM 39.2 °F - 37.4 °F 93% 30.11 in 7.0 mi Calm Calm - N/A   Clear
4:55 AM 37.4 °F - 35.6 °F 93% 30.11 in 7.0 mi Calm Calm - N/A   Clear
5:15 AM 37.4 °F - 35.6 °F 93% 30.11 in 5.0 mi Calm Calm - N/A   Clear
5:35 AM 37.4 °F - 35.6 °F 93% 30.11 in 7.0 mi Calm Calm - N/A   Clear
5:55 AM 37.4 °F - 35.6 °F 93% 30.11 in 5.0 mi Calm Calm - N/A   Clear
6:15 AM 37.4 °F - 35.6 °F 93% 30.11 in 4.0 mi Calm Calm - N/A   Clear
6:35 AM 37.4 °F 34.9 °F 35.6 °F 93% 30.11 in 4.0 mi SE 3.5 mph - N/A   Clear
6:55 AM 41.0 °F 39.0 °F 39.2 °F 93% 30.11 in 3.0 mi ESE 3.5 mph - N/A   Clear
7:15 AM 42.8 °F - 42.8 °F 100% 30.12 in 4.0 mi Calm Calm - N/A   Clear
7:35 AM 46.4 °F - 44.6 °F 93% 30.12 in 5.0 mi Calm Calm - N/A   Clear
7:55 AM 48.2 °F - 46.4 °F 93% 30.12 in 7.0 mi SE 3.5 mph - N/A   Clear
8:15 AM 51.8 °F - 46.4 °F 82% 30.12 in 7.0 mi SSE 4.6 mph - N/A   Clear
8:35 AM 51.8 °F - 46.4 °F 82% 30.12 in 7.0 mi SSE 4.6 mph - N/A   Clear
8:55 AM 53.6 °F - 46.4 °F 77% 30.11 in 10.0 mi SE 4.6 mph - N/A   Clear
9:15 AM 53.6 °F - 46.4 °F 77% 30.11 in 10.0 mi SSE 5.8 mph - N/A   Clear
9:35 AM 55.4 °F - 46.4 °F 72% 30.11 in 10.0 mi SSE 4.6 mph - N/A   Clear
9:55 AM 57.2 °F - 46.4 °F 67% 30.10 in 10.0 mi SE 4.6 mph - N/A   Clear
10:15 AM 57.2 °F - 46.4 °F 67% 30.10 in 10.0 mi South 3.5 mph - N/A   Clear
10:35 AM 59.0 °F - 46.4 °F 63% 30.10 in 10.0 mi Calm Calm - N/A   Clear
10:55 AM 60.8 °F - 46.4 °F 59% 30.10 in 10.0 mi South 3.5 mph - N/A   Clear
11:15 AM 62.6 °F - 48.2 °F 59% 30.09 in 10.0 mi SSE 4.6 mph - N/A   Clear
11:35 AM 62.6 °F - 48.2 °F 59% 30.09 in 10.0 mi SSE 4.6 mph - N/A   Clear
11:55 AM 64.4 °F - 48.2 °F 56% 30.09 in 10.0 mi SSE 5.8 mph - N/A   Clear
12:15 PM 66.2 °F - 48.2 °F 52% 30.08 in 10.0 mi SE 4.6 mph - N/A   Clear
12:35 PM 66.2 °F - 48.2 °F 52% 30.07 in 10.0 mi South 4.6 mph - N/A   Clear
12:55 PM 68.0 °F - 48.2 °F 49% 30.06 in 10.0 mi SSE 5.8 mph - N/A   Clear
1:15 PM 69.8 °F - 46.4 °F 43% 30.05 in 10.0 mi South 5.8 mph - N/A   Clear
1:35 PM 69.8 °F - 46.4 °F 43% 30.04 in 10.0 mi SSE 5.8 mph - N/A   Clear
1:55 PM 69.8 °F - 46.4 °F 43% 30.04 in 10.0 mi South 4.6 mph - N/A   Clear
2:15 PM 73.4 °F - 44.6 °F 36% 30.03 in 10.0 mi SSW 9.2 mph - N/A   Clear
2:35 PM 73.4 °F - 44.6 °F 36% 30.02 in 10.0 mi SSW 10.4 mph - N/A   Clear
2:55 PM 73.4 °F - 44.6 °F 36% 30.01 in 10.0 mi SW 9.2 mph - N/A   Scattered Clouds
3:15 PM 73.4 °F - 44.6 °F 36% 30.00 in 10.0 mi SSW 8.1 mph - N/A   Scattered Clouds
3:35 PM 71.6 °F - 42.8 °F 35% 29.99 in 10.0 mi SW 12.7 mph 18.4 mph N/A   Scattered Clouds
3:55 PM 73.4 °F - 42.8 °F 33% 29.98 in 10.0 mi WSW 11.5 mph - N/A   Scattered Clouds
4:15 PM 75.2 °F - 44.6 °F 34% 29.98 in 10.0 mi SSW 9.2 mph - N/A   Scattered Clouds
4:35 PM 73.4 °F - 44.6 °F 36% 29.97 in 10.0 mi SSW 10.4 mph - N/A   Scattered Clouds
4:55 PM 71.6 °F - 48.2 °F 43% 29.97 in 10.0 mi South 10.4 mph - N/A   Mostly Cloudy
5:15 PM 71.6 °F - 48.2 °F 43% 29.97 in 10.0 mi South 10.4 mph - N/A   Scattered Clouds
5:35 PM 71.6 °F - 46.4 °F 41% 29.96 in 10.0 mi South 6.9 mph - N/A   Clear
5:55 PM 69.8 °F - 46.4 °F 43% 29.96 in 10.0 mi SSW 11.5 mph - N/A   Scattered Clouds
6:15 PM 71.6 °F - 46.4 °F 41% 29.95 in 10.0 mi South 10.4 mph - N/A   Scattered Clouds
6:35 PM 71.6 °F - 46.4 °F 41% 29.95 in 10.0 mi SSW 10.4 mph 17.3 mph N/A   Scattered Clouds
6:55 PM 69.8 °F - 46.4 °F 43% 29.95 in 10.0 mi SSW 11.5 mph - N/A   Clear
7:15 PM 69.8 °F - 46.4 °F 43% 29.94 in 10.0 mi South 9.2 mph - N/A   Clear
7:35 PM 68.0 °F - 46.4 °F 46% 29.95 in 10.0 mi South 8.1 mph - N/A   Clear
7:55 PM 66.2 °F - 46.4 °F 49% 29.95 in 10.0 mi South 8.1 mph - N/A   Clear
8:15 PM 66.2 °F - 46.4 °F 49% 29.95 in 10.0 mi South 5.8 mph - N/A   Clear
8:35 PM 66.2 °F - 46.4 °F 49% 29.95 in 10.0 mi SSE 5.8 mph - N/A   Clear
8:55 PM 64.4 °F - 46.4 °F 52% 29.95 in 10.0 mi SSE 5.8 mph - N/A   Clear
9:15 PM 62.6 °F - 46.4 °F 55% 29.95 in 10.0 mi ESE 4.6 mph - N/A   Clear
9:35 PM 60.8 °F - 46.4 °F 59% 29.95 in 10.0 mi ESE 4.6 mph - N/A   Clear
9:55 PM 60.8 °F - 46.4 °F 59% 29.95 in 10.0 mi SSE 11.5 mph - N/A   Clear
10:15 PM 60.8 °F - 46.4 °F 59% 29.95 in 10.0 mi SSE 8.1 mph - N/A   Clear
10:35 PM 60.8 °F - 46.4 °F 59% 29.96 in 10.0 mi ESE 3.5 mph - N/A   Clear
10:55 PM 59.0 °F - 46.4 °F 63% 29.95 in 10.0 mi SE 5.8 mph - N/A   Clear
11:15 PM 59.0 °F - 46.4 °F 63% 29.95 in 10.0 mi ESE 9.2 mph - N/A   Clear
11:35 PM 57.2 °F - 46.4 °F 67% 29.93 in 10.0 mi SE 10.4 mph - N/A   Clear
11:55 PM 57.2 °F - 46.4 °F 67% 29.93 in 10.0 mi ESE 5.8 mph - N/A   Clear